STARLINK-37085

Last updated on Sun Apr 12 2026 00:02:07 GMT+0000 (Coordinated Universal Time)

1 68252U 26054W 26101.48806403 -.00075979 00000+0 -38664-3 0 9991 2 68252 53.1572 148.1274 0001513 118.8731 241.2444 15.80767735 3962
UTC large
Height (km)
Speed (km/s)
/
Latitude / Longitude
Inclination (degrees)
Orbital Period (minutes)
Azimuth
Elevation
Range (km)
Doppler Factor

Next 0 passes for location: London (51.5072 / 0.1276)

Sorry there are no passes over London.
STARLINK-37085